| time (UTC) | temp C | wind direction | speed KPH | gust KPH | rain 1hr cm | rain 24hr cm | rain mn cm | humidity % | barometer mb |
| 20260504200533 | 23 | 349 | 4.8 | 11.3 | 0.00 | 0.00 | 0.00 | 56 | 1010.2 |
| 20260504200030 | 23 | 315 | 3.2 | 3.2 | 0.00 | 0.00 | 0.00 | 57 | 1010.6 |
| 20260504195526 | 23 | 331 | 4.8 | 4.8 | 0.00 | 0.00 | 0.00 | 55 | 1010.5 |
| 20260504195023 | 23 | 8 | 6.4 | 11.3 | 0.00 | 0.00 | 0.00 | 56 | 1010.6 |
| 20260504194519 | 23 | 297 | 11.3 | 12.9 | 0.00 | 0.00 | 0.00 | 55 | 1010.6 |
| 20260504194015 | 22 | 286 | 6.4 | 8.0 | 0.00 | 0.00 | 0.00 | 56 | 1010.6 |
| 20260504193512 | 22 | 295 | 11.3 | 14.5 | 0.00 | 0.00 | 0.00 | 57 | 1010.6 |
| 20260504193011 | 22 | 319 | 6.4 | 9.7 | 0.00 | 0.00 | 0.00 | 58 | 1010.8 |
| 20260504192509 | 22 | 286 | 11.3 | 16.1 | 0.00 | 0.00 | 0.00 | 58 | 1010.7 |
| 20260504192007 | 22 | 286 | 9.7 | 14.5 | 0.00 | 0.00 | 0.00 | 60 | 1010.9 |
| 20260504191504 | 22 | 293 | 4.8 | 8.0 | 0.00 | 0.00 | 0.00 | 59 | 1010.7 |
| 20260504190959 | 21 | 295 | 9.7 | 11.3 | 0.00 | 0.00 | 0.00 | 58 | 1011.1 |
| 20260504190455 | 21 | 310 | 8.0 | 11.3 | 0.00 | 0.00 | 0.00 | 60 | 1010.9 |
| 20260504185952 | 21 | 18 | 6.4 | 9.7 | 0.00 | 0.00 | 0.00 | 58 | 1011.1 |
| 20260504185449 | 21 | 34 | 8.0 | 11.3 | 0.00 | 0.00 | 0.00 | 58 | 1011.1 |
| 20260504184945 | 20 | 297 | 8.0 | 11.3 | 0.00 | 0.00 | 0.00 | 61 | 1011.0 |
| 20260504184441 | 20 | 287 | 6.4 | 11.3 | 0.00 | 0.00 | 0.00 | 63 | 1011.2 |
| 20260504183937 | 19 | 289 | 3.2 | 3.2 | 0.00 | 0.00 | 0.00 | 66 | 1011.2 |
| 20260504183434 | 18 | 294 | 4.8 | 4.8 | 0.00 | 0.00 | 0.00 | 67 | 1011.7 |
| 20260504182933 | 18 | 291 | 8.0 | 11.3 | 0.00 | 0.00 | 0.00 | 66 | 1011.4 |
| 20260504182429 | 18 | 292 | 4.8 | 4.8 | 0.00 | 0.00 | 0.00 | 69 | 1011.8 |
| 20260504181926 | 18 | 287 | 1.6 | 3.2 | 0.00 | 0.00 | 0.00 | 65 | 1011.3 |
| 20260504181423 | 19 | 287 | 6.4 | 8.0 | 0.00 | 0.00 | 0.00 | 61 | 1012.0 |
| 20260504180922 | 19 | 287 | 4.8 | 4.8 | 0.00 | 0.00 | 0.00 | 61 | 1012.8 |
| 20260504180420 | 20 | 287 | 9.7 | 12.9 | 0.00 | 0.00 | 0.00 | 58 | 1012.8 |
| 20260504175918 | 20 | 287 | 6.4 | 8.0 | 0.00 | 0.00 | 0.00 | 58 | 1012.7 |
| 20260504175415 | 20 | 286 | 6.4 | 11.3 | 0.00 | 0.00 | 0.00 | 59 | 1012.4 |
| 20260504174913 | 20 | 286 | 8.0 | 11.3 | 0.00 | 0.00 | 0.00 | 57 | 1012.4 |
| 20260504174410 | 21 | 351 | 4.8 | 8.0 | 0.00 | 0.00 | 0.00 | 57 | 1011.9 |
| 20260504173907 | 21 | 292 | 3.2 | 3.2 | 0.00 | 0.00 | 0.00 | 58 | 1012.1 |
| 20260504173403 | 21 | 287 | 11.3 | 14.5 | 0.00 | 0.00 | 0.00 | 55 | 1011.8 |
| 20260504172901 | 21 | 301 | 9.7 | 12.9 | 0.00 | 0.00 | 0.00 | 57 | 1011.5 |
| 20260504172357 | 21 | 286 | 1.6 | 4.8 | 0.00 | 0.00 | 0.00 | 59 | 1011.7 |
| 20260504171853 | 20 | 304 | 4.8 | 4.8 | 0.00 | 0.00 | 0.00 | 57 | 1011.8 |
| 20260504171351 | 21 | 286 | 6.4 | 9.7 | 0.00 | 0.00 | 0.00 | 59 | 1011.7 |
| 20260504170848 | 20 | 293 | 8.0 | 12.9 | 0.00 | 0.00 | 0.00 | 59 | 1011.8 |
| 20260504170344 | 20 | 7 | 9.7 | 11.3 | 0.00 | 0.00 | 0.00 | 60 | 1012.0 |
| 20260504160303 | 18 | 329 | 3.2 | 8.0 | 0.00 | 0.00 | 0.00 | 64 | 1012.6 |
| 20260504150728 | 16 | 287 | 6.4 | 11.3 | 0.00 | 0.00 | 0.00 | 71 | 1013.5 |
| 20260504150225 | 16 | 287 | 0.0 | 1.6 | 0.00 | 0.00 | 0.00 | 72 | 1013.7 |
| 20260504141154 | 14 | 331 | 8.0 | 11.3 | 0.00 | 0.00 | 0.00 | 75 | 1014.0 |
| 20260504140651 | 14 | 287 | 9.7 | 11.3 | 0.00 | 0.00 | 0.00 | 76 | 1014.0 |
| 20260504140146 | 14 | 300 | 8.0 | 11.3 | 0.00 | 0.00 | 0.00 | 76 | 1014.2 |
| 20260504130614 | 12 | 287 | 11.3 | 16.1 | 0.00 | 0.00 | 0.00 | 76 | 1014.4 |
| 20260504130111 | 12 | 290 | 8.0 | 12.9 | 0.00 | 0.00 | 0.00 | 75 | 1014.5 |
| 20260504110503 | 10 | 301 | 1.6 | 3.2 | 0.00 | 0.00 | 0.00 | 71 | 1014.0 |
| 20260504100419 | 9 | 41 | 0.0 | 1.6 | 0.00 | 0.00 | 0.00 | 73 | 1013.8 |
| 20260504081812 | 8 | 38 | 0.0 | 0.0 | 0.00 | 0.00 | 0.00 | 79 | 1014.5 |
| 20260504081309 | 7 | 38 | 0.0 | 0.0 | 0.00 | 0.00 | 0.00 | 80 | 1014.1 |
| 20260504080805 | 7 | 38 | 0.0 | 0.0 | 0.00 | 0.00 | 0.00 | 80 | 1014.2 |
| 20260504080301 | 7 | 38 | 0.0 | 0.0 | 0.00 | 0.00 | 0.00 | 80 | 1014.2 |
| 20260504070229 | 8 | 38 | 0.0 | 0.0 | 0.00 | 0.00 | 0.00 | 77 | 1014.4 |
| 20260504060149 | 11 | 343 | 0.0 | 1.6 | 0.00 | 0.00 | 0.00 | 63 | 1015.2 |
| 20260504050618 | 12 | 309 | 1.6 | 1.6 | 0.00 | 0.00 | 0.00 | 55 | 1015.8 |
| 20260504050115 | 12 | 302 | 1.6 | 1.6 | 0.00 | 0.00 | 0.00 | 57 | 1015.8 |
| 20260504045612 | 12 | 339 | 0.0 | 0.0 | 0.00 | 0.00 | 0.00 | 59 | 1015.8 |
| 20260504045107 | 12 | 288 | 3.2 | 4.8 | 0.00 | 0.00 | 0.00 | 58 | 1015.1 |
| 20260504044605 | 12 | 299 | 6.4 | 8.0 | 0.00 | 0.00 | 0.00 | 59 | 1015.2 |
| 20260504044101 | 12 | 287 | 6.4 | 8.0 | 0.00 | 0.00 | 0.00 | 60 | 1015.4 |
| 20260504043559 | 11 | 290 | 6.4 | 9.7 | 0.00 | 0.00 | 0.00 | 62 | 1015.3 |
| 20260504043055 | 11 | 312 | 1.6 | 1.6 | 0.00 | 0.00 | 0.00 | 74 | 1015.7 |
| 20260504042552 | 11 | 311 | 1.6 | 1.6 | 0.00 | 0.00 | 0.00 | 78 | 1016.0 |
| 20260504042049 | 11 | 357 | 0.0 | 0.0 | 0.00 | 0.00 | 0.00 | 76 | 1016.0 |
| 20260504041545 | 11 | 348 | 0.0 | 0.0 | 0.00 | 0.00 | 0.00 | 74 | 1016.1 |
| 20260504041041 | 11 | 40 | 0.0 | 0.0 | 0.00 | 0.00 | 0.00 | 72 | 1015.8 |
| 20260504040539 | 11 | 30 | 0.0 | 0.0 | 0.00 | 0.00 | 0.00 | 72 | 1016.0 |
| 20260504040035 | 11 | 334 | 0.0 | 0.0 | 0.00 | 0.00 | 0.00 | 74 | 1016.6 |
| 20260504035532 | 11 | 333 | 0.0 | 1.6 | 0.00 | 0.00 | 0.00 | 74 | 1016.3 |
| 20260504035029 | 11 | 34 | 0.0 | 0.0 | 0.00 | 0.00 | 0.00 | 73 | 1016.1 |
| 20260504034527 | 11 | 32 | 0.0 | 0.0 | 0.00 | 0.00 | 0.00 | 72 | 1016.1 |
| 20260504034023 | 11 | 43 | 1.6 | 1.6 | 0.00 | 0.00 | 0.00 | 73 | 1016.2 |
| 20260504033521 | 11 | 348 | 0.0 | 0.0 | 0.00 | 0.00 | 0.00 | 71 | 1016.3 |
| 20260504033018 | 11 | 348 | 0.0 | 0.0 | 0.00 | 0.00 | 0.00 | 69 | 1016.2 |
| 20260504032515 | 11 | 349 | 0.0 | 0.0 | 0.00 | 0.00 | 0.00 | 70 | 1015.9 |
| 20260504032012 | 11 | 349 | 0.0 | 0.0 | 0.00 | 0.00 | 0.00 | 69 | 1016.0 |
| 20260504031509 | 11 | 349 | 0.0 | 0.0 | 0.00 | 0.00 | 0.00 | 71 | 1016.2 |
| 20260504031005 | 11 | 33 | 1.6 | 1.6 | 0.00 | 0.00 | 0.00 | 69 | 1016.1 |
| 20260504030503 | 11 | 339 | 0.0 | 0.0 | 0.00 | 0.00 | 0.00 | 70 | 1016.0 |
| 20260504025958 | 11 | 24 | 0.0 | 0.0 | 0.00 | 0.00 | 0.00 | 67 | 1016.0 |
| 20260504025456 | 11 | 30 | 0.0 | 0.0 | 0.00 | 0.00 | 0.00 | 66 | 1016.0 |
| 20260504024952 | 11 | 29 | 0.0 | 0.0 | 0.00 | 0.00 | 0.00 | 66 | 1016.1 |
| 20260504024449 | 11 | 357 | 0.0 | 0.0 | 0.00 | 0.00 | 0.00 | 66 | 1016.2 |
| 20260504023946 | 12 | 326 | 1.6 | 1.6 | 0.00 | 0.00 | 0.00 | 64 | 1016.4 |
| 20260504023443 | 12 | 351 | 0.0 | 0.0 | 0.00 | 0.00 | 0.00 | 63 | 1016.3 |
| 20260504022938 | 12 | 354 | 0.0 | 0.0 | 0.00 | 0.00 | 0.00 | 64 | 1016.2 |
| 20260504022435 | 12 | 354 | 0.0 | 0.0 | 0.00 | 0.00 | 0.00 | 63 | 1016.0 |
| 20260504021932 | 12 | 344 | 0.0 | 0.0 | 0.00 | 0.00 | 0.00 | 62 | 1016.1 |
| 20260504021429 | 12 | 33 | 0.0 | 0.0 | 0.00 | 0.00 | 0.00 | 63 | 1015.8 |
| 20260504020926 | 12 | 354 | 0.0 | 0.0 | 0.00 | 0.00 | 0.00 | 63 | 1016.1 |
| 20260504020423 | 12 | 349 | 0.0 | 0.0 | 0.00 | 0.00 | 0.00 | 62 | 1016.1 |
| 20260504015920 | 12 | 28 | 0.0 | 0.0 | 0.00 | 0.00 | 0.00 | 62 | 1016.2 |
| 20260504015415 | 12 | 21 | 0.0 | 0.0 | 0.00 | 0.00 | 0.00 | 61 | 1015.9 |
| 20260504014912 | 12 | 4 | 0.0 | 0.0 | 0.00 | 0.00 | 0.00 | 60 | 1015.8 |
| 20260504014408 | 12 | 38 | 0.0 | 0.0 | 0.00 | 0.00 | 0.00 | 61 | 1015.8 |
| 20260504013905 | 12 | 4 | 0.0 | 0.0 | 0.00 | 0.00 | 0.00 | 59 | 1015.5 |
| 20260504013403 | 12 | 351 | 0.0 | 0.0 | 0.00 | 0.00 | 0.00 | 56 | 1015.6 |
| 20260504012859 | 12 | 336 | 0.0 | 0.0 | 0.00 | 0.00 | 0.00 | 57 | 1015.4 |
| 20260504012357 | 13 | 344 | 1.6 | 1.6 | 0.00 | 0.00 | 0.00 | 60 | 1015.2 |
| 20260504011854 | 13 | 14 | 0.0 | 0.0 | 0.00 | 0.00 | 0.00 | 59 | 1015.2 |
| 20260504011351 | 13 | 42 | 0.0 | 0.0 | 0.00 | 0.00 | 0.00 | 57 | 1015.0 |
| 20260504010846 | 13 | 42 | 0.0 | 0.0 | 0.00 | 0.00 | 0.00 | 55 | 1015.4 |
| 20260504010342 | 13 | 350 | 1.6 | 1.6 | 0.00 | 0.00 | 0.00 | 53 | 1015.4 |
| 20260504005839 | 13 | 29 | 0.0 | 0.0 | 0.00 | 0.00 | 0.00 | 54 | 1015.3 |
| 20260504005336 | 13 | 350 | 0.0 | 1.6 | 0.00 | 0.00 | 0.00 | 52 | 1015.6 |
| 20260504004834 | 13 | 351 | 0.0 | 1.6 | 0.00 | 0.00 | 0.00 | 54 | 1015.4 |
| 20260504004331 | 13 | 352 | 0.0 | 0.0 | 0.00 | 0.00 | 0.00 | 52 | 1015.6 |
| 20260504003827 | 13 | 352 | 0.0 | 0.0 | 0.00 | 0.00 | 0.00 | 47 | 1015.6 |
| 20260504003324 | 13 | 352 | 0.0 | 0.0 | 0.00 | 0.00 | 0.00 | 49 | 1015.5 |
| 20260504002821 | 14 | 352 | 0.0 | 0.0 | 0.00 | 0.00 | 0.00 | 46 | 1015.7 |
| 20260504002318 | 14 | 353 | 0.0 | 0.0 | 0.00 | 0.00 | 0.00 | 44 | 1015.7 |
| 20260504001816 | 15 | 353 | 0.0 | 0.0 | 0.00 | 0.00 | 0.00 | 45 | 1015.6 |
| 20260504001313 | 15 | 45 | 0.0 | 0.0 | 0.00 | 0.00 | 0.00 | 41 | 1015.4 |
| 20260504000810 | 15 | 351 | 0.0 | 0.0 | 0.00 | 0.00 | 0.00 | 39 | 1015.5 |
| 20260504000307 | 15 | 22 | 0.0 | 0.0 | 0.00 | 0.00 | 0.00 | 41 | 1015.6 |
| 20260503235804 | 15 | 353 | 0.0 | 0.0 | 0.00 | 0.00 | 0.00 | 38 | 1015.4 |
| 20260503235301 | 15 | 333 | 0.0 | 0.0 | 0.00 | 0.00 | 0.00 | 37 | 1015.7 |
| 20260503234759 | 15 | 51 | 0.0 | 1.6 | 0.00 | 0.00 | 0.00 | 38 | 1015.7 |
| 20260503234257 | 15 | 333 | 0.0 | 0.0 | 0.00 | 0.00 | 0.00 | 38 | 1015.8 |
| 20260503233754 | 16 | 287 | 1.6 | 3.2 | 0.00 | 0.00 | 0.00 | 36 | 1015.7 |
| 20260503233249 | 16 | 287 | 3.2 | 4.8 | 0.00 | 0.00 | 0.00 | 35 | 1015.7 |
| 20260503232746 | 16 | 291 | 3.2 | 3.2 | 0.00 | 0.00 | 0.00 | 36 | 1015.5 |
| 20260503232244 | 16 | 287 | 4.8 | 8.0 | 0.00 | 0.00 | 0.00 | 36 | 1015.7 |
| 20260503231742 | 16 | 296 | 3.2 | 3.2 | 0.00 | 0.00 | 0.00 | 35 | 1015.6 |
| 20260503231238 | 16 | 299 | 1.6 | 1.6 | 0.00 | 0.00 | 0.00 | 35 | 1015.7 |
| 20260503230734 | 16 | 293 | 1.6 | 1.6 | 0.00 | 0.00 | 0.00 | 35 | 1015.6 |
| 20260503230232 | 17 | 295 | 3.2 | 3.2 | 0.00 | 0.00 | 0.00 | 33 | 1015.7 |
| 20260503225729 | 16 | 287 | 3.2 | 3.2 | 0.00 | 0.00 | 0.00 | 36 | 1015.9 |
| 20260503225229 | 16 | 287 | 3.2 | 8.0 | 0.00 | 0.00 | 0.00 | 34 | 1016.0 |
| 20260503224726 | 16 | 303 | 8.0 | 9.7 | 0.00 | 0.00 | 0.00 | 34 | 1016.1 |
| 20260503224224 | 16 | 287 | 4.8 | 4.8 | 0.00 | 0.00 | 0.00 | 34 | 1016.2 |
| 20260503223721 | 16 | 47 | 1.6 | 1.6 | 0.00 | 0.00 | 0.00 | 37 | 1016.3 |
| 20260503223219 | 16 | 287 | 6.4 | 8.0 | 0.00 | 0.00 | 0.00 | 35 | 1016.5 |
| 20260503222715 | 17 | 352 | 0.0 | 1.6 | 0.00 | 0.00 | 0.00 | 37 | 1016.1 |
| 20260503222213 | 16 | 310 | 1.6 | 3.2 | 0.00 | 0.00 | 0.00 | 36 | 1016.5 |
| 20260503221711 | 16 | 288 | 9.7 | 11.3 | 0.00 | 0.00 | 0.00 | 33 | 1016.2 |
| 20260503221209 | 17 | 291 | 8.0 | 11.3 | 0.00 | 0.00 | 0.00 | 33 | 1016.3 |
| 20260503220705 | 17 | 0 | 6.4 | 9.7 | 0.00 | 0.00 | 0.00 | 33 | 1016.5 |
| 20260503220202 | 17 | 287 | 11.3 | 14.5 | 0.00 | 0.00 | 0.00 | 34 | 1016.4 |
| 20260503215659 | 17 | 4 | 11.3 | 14.5 | 0.00 | 0.00 | 0.00 | 34 | 1016.5 |
| 20260503215155 | 17 | 9 | 6.4 | 8.0 | 0.00 | 0.00 | 0.00 | 36 | 1016.4 |
| 20260503214654 | 17 | 318 | 1.6 | 1.6 | 0.00 | 0.00 | 0.00 | 33 | 1016.2 |
| 20260503214149 | 17 | 300 | 3.2 | 3.2 | 0.00 | 0.00 | 0.00 | 35 | 1016.4 |
| 20260503213644 | 17 | 319 | 4.8 | 4.8 | 0.00 | 0.00 | 0.00 | 33 | 1016.2 |
| 20260503213140 | 17 | 287 | 4.8 | 4.8 | 0.00 | 0.00 | 0.00 | 38 | 1016.1 |
| 20260503212637 | 17 | 34 | 3.2 | 4.8 | 0.00 | 0.00 | 0.00 | 33 | 1016.3 |
| 20260503212135 | 17 | 318 | 4.8 | 4.8 | 0.00 | 0.00 | 0.00 | 36 | 1016.5 |
| 20260503211632 | 18 | 355 | 3.2 | 3.2 | 0.00 | 0.00 | 0.00 | 36 | 1016.3 |
| 20260503211127 | 18 | 286 | 6.4 | 8.0 | 0.00 | 0.00 | 0.00 | 34 | 1016.6 |
| 20260503210624 | 17 | 355 | 4.8 | 8.0 | 0.00 | 0.00 | 0.00 | 36 | 1016.3 |
| 20260503210121 | 18 | 286 | 3.2 | 4.8 | 0.00 | 0.00 | 0.00 | 37 | 1016.6 |
| 20260503205616 | 18 | 295 | 6.4 | 9.7 | 0.00 | 0.00 | 0.00 | 34 | 1016.5 |
| 20260503205113 | 18 | 320 | 11.3 | 12.9 | 0.00 | 0.00 | 0.00 | 32 | 1016.8 |
| 20260503204610 | 18 | 330 | 9.7 | 12.9 | 0.00 | 0.00 | 0.00 | 33 | 1016.7 |
| 20260503204107 | 17 | 297 | 0.0 | 1.6 | 0.00 | 0.00 | 0.00 | 34 | 1016.7 |
| 20260503203604 | 17 | 286 | 6.4 | 9.7 | 0.00 | 0.00 | 0.00 | 37 | 1017.0 |
| 20260503203102 | 17 | 286 | 8.0 | 11.3 | 0.00 | 0.00 | 0.00 | 34 | 1016.9 |
| 20260503202559 | 17 | 286 | 11.3 | 17.7 | 0.00 | 0.00 | 0.00 | 34 | 1017.1 |
| 20260503202057 | 17 | 9 | 0.0 | 0.0 | 0.00 | 0.00 | 0.00 | 34 | 1017.0 |
| 20260503201555 | 18 | 289 | 4.8 | 8.0 | 0.00 | 0.00 | 0.00 | 37 | 1017.3 |
| 20260503201052 | 17 | 286 | 8.0 | 12.9 | 0.00 | 0.00 | 0.00 | 34 | 1017.4 |